Regional Weather Roundup
Issued by NWS

Home | Current Version | Previous Version | Text Only | Print | Product List | Glossary Off
Versions: 1 2 3 4 5 6 7 8 9 10 11 12 13 14 15 16 17 18 19 20 21 22 23 24 25 26 27 28 29 30 31 32 33 34 35 36 37 38 39 40 41 42 43 44 45 46 47 48 49 50

000
ASUS43 KDTX 032310
RWRMI
MICHIGAN HOURLY REGIONAL WEATHER ROUNDUP
NATIONAL WEATHER SERVICE DETROIT/PONTIAC MI
700 PM EDT THU SEP 03 2015

NOTE: "FAIR" INDICATES FEW OR NO CLOUDS BELOW 12,000 FEET WITH NO
SIGNIFICANT WEATHER AND/OR OBSTRUCTION TO VISIBILITY.

MIZ047>049-052>055-059>063-066>070-074>076-081>083-040000-
SOUTHEAST LOWER MICHIGAN

CITY           SKY/WX    TMP DP  RH WIND       PRES   REMARKS
ADRIAN         PTSUNNY   86  66  51 W7        29.91R
ALMA           CLOUDY    68  67  98 SE6       29.90S
ANN ARBOR      TSTM      68  66  93 W3        29.94R
BAD AXE        CLOUDY    69  67  93 E7        29.94S
CARO           LGT RAIN  68  67  98 CALM      29.90F
DETROIT CITY   CLOUDY    73  68  84 CALM      29.92R
DETROIT        TSTM      73  68  84 W13       29.96R
FLINT          LGT RAIN  73  68  84 E3        29.92R
GROSSE ILE     CLOUDY    73  68  83 E5        29.90F
HILLSDALE      PTSUNNY   85  66  53 W7        29.92S
HOWELL         LGT RAIN  67  65  91 SE5       29.91F

CITY           SKY/WX    TMP DP  RH WIND       PRES   REMARKS
JACKSON        LGT RAIN  72  70  93 CALM      29.93R FOG
LAMBERTVILLE   CLOUDY    87  66  50 SW5       29.90S
LANSING        CLOUDY    72  68  87 N8        29.90R
LAPEER         RAIN      67  67  99 S5        29.94R
MASON          CLOUDY    70  66  88 S6        29.91S
MONROE         CLOUDY    76  69  78 E8        29.89S
MT. CLEMENS    LGT RAIN  70  66  88 E8        29.91R
PONTIAC        TSTM      71  66  84 VRB6      29.94R
PORT HOPE        N/A     70  68  93 E13       29.93S
PORT HURON     CLOUDY    68  68 100 CALM      29.94R
TRI CITIES     LGT RAIN  68  65  90 SE8       29.91S
MIDLAND        CLOUDY    69  67  95 CALM      29.90R
TROY           CLOUDY    72  69  91 CALM      29.94R
SAGINAW HB     RAIN      66  64  94 SE8       29.91R
$$
MIZ043>046-050>051-056>058-064>065-071>073-077>080-040000-
SOUTHWEST LOWER MICHIGAN

CITY           SKY/WX    TMP DP  RH WIND       PRES   REMARKS
BATTLE CREEK   PTSUNNY   86  69  56 W9        29.90R HX  90
BENTON HARBOR  PTSUNNY   80  69  69 NW7       29.88S
BIG RAPIDS     PTSUNNY   72  67  82 W8        29.89S
COLDWATER      MOSUNNY   87  66  50 W7        29.90R
FREMONT        PTSUNNY   73  68  86 NW6       29.89S
HOLLAND        MOSUNNY   76  67  73 NW9       29.91S
GRAND RAPIDS   CLOUDY    80  71  74 W9        29.90R
IONIA          CLOUDY    78  72  79 NW6       29.89R
KALAMAZOO      MOSUNNY   86  69  56 NW9       29.90R HX  90
LUDINGTON      CLOUDY    71  68  90 NW3       29.90S FOG
MARSHALL       CLOUDY    78  70  75 NE3       29.90R
MOUNT PLEASANT CLOUDY    71  68  92 SE5       29.89F
MUSKEGON       MOSUNNY   74  66  76 W10       29.90S
SOUTH HAVEN    MOSUNNY   76  69  79 N6        29.90S
$$
MIZ016>042-040000-
NORTHERN LOWER MICHIGAN

CITY           SKY/WX    TMP DP  RH WIND       PRES   REMARKS
ALPENA         LGT RAIN  69  66  90 E5        29.95S
BEAVER ISLAND  PTSUNNY   72  66  82 E10       29.93F
BELLAIRE       CLOUDY    72  64  78 E6        29.91R
CADILLAC       DRIZZLE   71  69  92 CALM      29.91R
CHARLEVOIX     PTSUNNY   73  67  81 E9        29.94S
FRANKFORT      CLOUDY    71  68  92 N3        29.90S
GAYLORD        CLOUDY    67  67 100 E6        29.94R
GRAYLING       DRIZZLE   66  66  97 E5        29.94R
HARBOR SPRINGS PTSUNNY   70  66  87 NE8       29.92S
HOUGHTON LAKE  CLOUDY    68  66  93 E5        29.92R FOG
MANISTEE       CLOUDY    68  64  88 NW5       29.90S
OSCODA         CLOUDY    68  67  96 E10       29.93S
PELLSTON       CLOUDY    71  67  87 E8        29.93S
ROGERS CITY    CLOUDY    70  66  88 NE3       29.95F
TRAVERSE CITY  CLOUDY    72  67  84 N5        29.89S
$$
MIZ007>008-015-040000-
EASTERN UPPER MICHIGAN

CITY           SKY/WX    TMP DP  RH WIND       PRES   REMARKS
KINROSS        PTSUNNY   73  64  73 E7        29.96S
MACKINAC ISLAN FOG       66  65  97 E6        29.95R VSB 1/2
NEWBERRY       MOSUNNY   78  62  56 NE8       29.96R
S. S. MARIE    MOSUNNY   76  63  64 SE6       29.96R
MUNISING         N/A     70  62  76 NW9       29.97S
$$
MIZ004>006-011>014-085-040000-
CENTRAL UPPER MICHIGAN

CITY           SKY/WX    TMP DP  RH WIND       PRES   REMARKS
MANISTIQUE     SUNNY     77  62  60 E6        29.94S
ESCANABA       SUNNY     75  66  73 E7        29.93S
MENOMINEE      SUNNY     73  63  68 E8        29.94R
SAWYER-GWINN   SUNNY     70  59  68 NE8       30.00F
$$
MIZ001>003-009>011-084-040000-
WESTERN UPPER MICHIGAN

CITY           SKY/WX    TMP DP  RH WIND       PRES   REMARKS
IRON MOUNTAIN  SUNNY     79  63  57 NE3       29.95F
HOUGHTON       SUNNY     72  54  53 E7        29.99R
COPPER HARBOR    N/A     69  59  70 E3        29.98S
IRONWOOD       SUNNY     75  66  73 N3        29.93S
$$

ABBREVIATIONS USED IN REMARKS
   TC - TEMPERATURE IN CELSIUS
  WCI - WIND CHILL INDEX
   HX - HEAT INDEX
  VSB - VISIBILITY




USA.gov is the U.S. government's official web portal to all federal, state and local government web resources and services.